Location: Aragnouet
(42.7874°N, 0.2165°E)
Time: 22:26:55
(UTC+00:00)

SPOT 3 Rocket - Pass Details

Date: 09 April 2020
Orbit: 779 x 794 km, 98.8° (Epoch: 05 June)

Event Time Altitude Azimuth Distance (km) Brightness Sun altitude
Exits shadow 19:22:42 - 136° (SE) 2,496 5.6 -9.3°
Reaches altitude 10° 19:23:05 10° 135° (SE) 2,355 5.5 -9.3°
Maximum altitude 19:27:52 38° 68° (ENE) 1,188 4.2 -10.1°
Drops below altitude 10° 19:32:39 10° 1° (N) 2,362 6.3 -11.0°
Sets 19:35:06 0° 354° (N) 3,292 7.2 -11.4°
